Weather History for KNTU - November, 2013

Change the Weather History Date:

Friday, November 22, 2013

  Actual Average Record
Temperature  
Mean Temperature 58 °F -  
Max Temperature 73 °F 57 °F 78 °F (2007)
Min Temperature 44 °F 39 °F 24 °F (2000)
Degree Days  
Heating Degree Days 6    
Growing Degree Days 8 (Base 50)    
Moisture  
Dew Point 53 °F    
Average Humidity 79    
Maximum Humidity 100    
Minimum Humidity 49    
Precipitation  
Precipitation 0.02 in - - ()
Sea Level Pressure  
Sea Level Pressure 30.20 in    
Wind  
Wind Speed 6 mph (SW)    
Max Wind Speed 16 mph    
Max Gust Speed 24 mph    
Visibility 9 miles    
Events Fog , Rain    
Averages and records for this station are not official NWS values.
T = Trace of Precipitation, MM = Missing Value Source: NWS Daily Summary

Daily Weather History Graph

Daily Weather History Graph

Search for Another Location

Airport or City:

Trip Planner

Search our weather history database for the weather conditions in past years. The results will help you decide how hot, cold, wet, or windy it might be!

Date:

Astronomy

Nov. 22, 2013 Rise Set
Actual Time 6:49 AM EST 4:50 PM EST
Civil Twilight 6:21 AM EST 5:18 PM EST
Nautical Twilight 5:50 AM EST 5:50 PM EST
Astronomical Twilight 5:19 AM EST 6:21 PM EST
Moon 9:18 PM EST (11/22) 10:33 AM EST (11/22)
Length of Visible Light 10h 57m
Length of Day
10h 00m
Waning Gibbous, 78% of the Moon is Illuminated
Nov 22
Waning Gibbous
Nov 25
Last Quarter
Dec 2
New
Dec 9
First Quarter
Dec 17
Full

Hourly Weather History & Observations

Time (EST) Temp. Windchill Dew Point Humidity Pressure Visibility Wind Dir Wind Speed Gust Speed Precip Events Conditions
12:56 AM 48.9 °F - 48.0 °F 97% 30.39 in 10.0 mi Calm Calm - N/A   Mostly Cloudy
1:56 AM 45.0 °F - 45.0 °F 100% 30.37 in 6.0 mi Calm Calm - N/A   Scattered Clouds
2:56 AM 45.0 °F - 45.0 °F 100% 30.36 in 7.0 mi Calm Calm - N/A Fog Patches of Fog
3:56 AM 46.9 °F - 46.9 °F 100% 30.35 in 10.0 mi WSW 4.6 mph - N/A   Partly Cloudy
4:56 AM 45.0 °F - 45.0 °F 100% 30.33 in 10.0 mi Calm Calm - N/A   Partly Cloudy
5:56 AM 44.1 °F 42.5 °F 43.0 °F 96% 30.32 in 6.0 mi West 3.5 mph - N/A   Partly Cloudy
6:56 AM 46.9 °F - 45.0 °F 93% 30.31 in 10.0 mi Calm Calm - N/A Fog Patches of Fog
7:56 AM 50.0 °F - 48.9 °F 96% 30.31 in 6.0 mi SSW 4.6 mph - N/A   Scattered Clouds
8:56 AM 57.9 °F - 53.1 °F 84% 30.31 in 10.0 mi SW 5.8 mph - N/A   Scattered Clouds
9:56 AM 62.1 °F - 54.0 °F 75% 30.28 in 10.0 mi SSW 9.2 mph - N/A   Mostly Cloudy
10:56 AM 66.9 °F - 54.0 °F 63% 30.26 in 10.0 mi SW 10.4 mph - N/A   Mostly Cloudy
11:56 AM 71.1 °F - 53.1 °F 53% 30.22 in 10.0 mi SW 12.7 mph 21.9 mph N/A   Mostly Cloudy
12:56 PM 72.0 °F - 53.1 °F 51% 30.18 in 10.0 mi SSW 13.8 mph - N/A   Mostly Cloudy
1:56 PM 73.0 °F - 53.1 °F 49% 30.15 in 10.0 mi SW 16.1 mph 24.2 mph N/A   Mostly Cloudy
2:56 PM 73.0 °F - 55.0 °F 53% 30.13 in 10.0 mi WSW 15.0 mph 24.2 mph N/A   Mostly Cloudy
3:56 PM 71.1 °F - 55.9 °F 59% 30.13 in 10.0 mi SW 15.0 mph - N/A   Mostly Cloudy
4:56 PM 69.1 °F - 55.9 °F 63% 30.11 in 10.0 mi SSW 9.2 mph - N/A   Overcast
5:56 PM 66.9 °F - 57.0 °F 70% 30.10 in 10.0 mi SSW 9.2 mph - N/A   Mostly Cloudy
6:56 PM 66.0 °F - 57.9 °F 75% 30.08 in 10.0 mi SSW 8.1 mph - N/A   Overcast
7:56 PM 66.0 °F - 57.9 °F 75% 30.07 in 10.0 mi SSW 9.2 mph - N/A   Overcast
8:56 PM 66.0 °F - 59.0 °F 78% 30.05 in 10.0 mi SW 11.5 mph - N/A   Overcast
9:56 PM 66.0 °F - 59.0 °F 78% 30.04 in 10.0 mi SW 12.7 mph - N/A   Overcast
10:26 PM 66.0 °F - 60.1 °F 81% 30.03 in 10.0 mi SW 12.7 mph - 0.00 in Rain Light Rain
10:56 PM 64.9 °F - 61.0 °F 87% 30.04 in 10.0 mi WSW 11.5 mph - 0.00 in Rain Light Rain
11:56 PM 64.0 °F - 61.0 °F 90% 30.04 in 10.0 mi WSW 16.1 mph - 0.02 in Rain Light Rain